Theta_e
312 313 313 311 310 307 302 300 297 293 295 297 300 300 299 298 298 298 298 299 294 292
311 312 312 310 310 307 307 305 299 294 291 293 293 295 296 296 295 295 296 295 293 290
309 310 310 309 306 304 302 298 294 290 290 288 291 291 293 292 290 291 292 291 290 288
307 308 308 307 305 302 298 292 290 287 287 286 287 288 290 289 288 288 288 288 287 286
305 305 304 304 302 298 293 290 289 287 286 285 286 287 287 287 287 286 284 286 285 284
303 302 301 298 296 292 290 288 285 284 284 283 284 284 285 285 285 286 284 284 283 282
300 300 298 295 292 289 287 285 284 284 283 283 282 283 282 282 283 283 283 283 283 282
299 299 297 293 289 288 285 285 284 282 282 282 281 281 281 281 282 282 282 282 283 282
296 293 292 290 288 286 284 283 282 282 281 281 281 285 285 283 282 281 281 281 281 282
292 290 290 289 287 285 284 283 282 282 281 281 281 285 286 285 282 281 281 281 280 280
289 288 288 286 285 285 283 282 281 281 281 281 281 285 286 284 282 282 282 281 281 280
288 287 287 285 284 284 283 282 281 282 281 281 281 285 286 284 281 281 281 281 281 281
287 286 285 285 284 284 284 283 281 281 281 281 280 285 286 283 281 281 280 280 281 282
286 285 285 285 285 283 282 281 281 280 280 280 281 284 286 285 282 281 280 280 280 280
Wind_Speed
14 10 10 11 9 9 9 9 11 10 10 11 12 11 10 8 7 9 8 10 6 4
12 13 10 12 10 7 9 8 11 11 10 9 9 9 10 8 8 7 7 8 7 6
12 12 11 10 11 10 8 10 11 10 11 10 9 9 9 6 8 8 7 7 10 8
10 11 10 10 9 9 8 9 10 10 10 11 11 11 12 9 12 11 11 10 11 10
11 10 10 10 9 7 7 7 8 9 9 9 10 12 12 12 13 13 13 12 10 12
11 11 11 9 7 7 8 8 7 8 9 10 10 10 7 6 7 9 11 13 12 11
10 10 9 8 8 8 8 8 9 9 9 9 8 8 6 7 5 6 7 7 9 11
9 9 9 8 8 8 8 8 8 8 8 8 10 7 9 9 8 7 8 6 6 6
7 6 6 6 8 9 9 8 8 9 10 10 7 17 19 13 9 9 11 10 7 7
7 8 8 7 8 8 8 8 9 9 9 10 9 20 20 18 10 9 8 10 11 9
7 8 8 9 9 8 8 9 8 8 8 8 8 21 21 18 10 8 7 8 9 9
8 8 8 9 8 7 7 6 7 7 8 9 8 21 24 18 10 9 9 8 8 9
5 7 8 8 8 7 6 6 6 7 7 8 8 19 22 17 8 9 7 7 8 14
4 4 5 6 4 6 7 7 7 8 7 9 11 15 25 23 10 10 10 10 9 7
Wind_Direction
215 218 205 208 199 196 195 193 180 186 185 187 187 185 177 184 181 186 186 184 167 154
215 218 207 214 206 208 200 184 178 184 180 178 180 178 175 176 177 182 184 166 158 149
216 218 212 210 204 201 194 171 169 168 177 169 173 167 173 174 158 162 170 154 154 143
225 220 218 220 207 200 184 175 167 170 171 173 170 172 177 176 163 164 160 164 157 146
218 217 222 217 209 187 183 171 170 172 178 179 184 182 176 177 173 172 160 161 154 148
219 215 215 209 196 171 167 167 161 165 176 181 181 174 161 170 169 171 162 158 155 150
217 212 207 201 185 170 165 165 171 179 179 175 170 165 148 142 143 157 148 147 148 155
215 210 201 185 173 166 165 177 176 168 167 164 169 165 151 141 158 150 135 124 129 142
209 186 194 175 172 170 168 164 163 176 175 175 177 171 174 161 151 151 153 146 148 144
178 180 183 171 168 173 179 165 179 182 180 186 179 182 181 163 148 160 165 156 157 143
168 176 176 174 179 175 167 175 175 179 179 176 181 179 181 162 153 152 157 169 174 157
177 176 176 181 180 171 160 166 170 166 166 171 173 188 184 168 163 157 169 170 171 158
172 171 178 173 170 162 165 157 145 150 160 154 159 182 184 176 156 163 165 169 180 180
140 156 152 143 134 143 144 143 147 150 155 156 161 177 191 179 183 178 181 187 189 188